Temperature
13 13 13 12 12 11 10 10 9 9 8 8 8 8 8 8 7 7 7 8 8 7 7 7 7 8 8 9 10 10 11 11 12 11 11 9 9 9 10 10 11 12 11
14 14 13 13 12 11 11 10 10 9 8 8 8 8 8 7 7 7 7 7 7 7 7 7 7 7 8 8 9 9 10 10 11 11 11 10 8 8 8 9 9 9 10
13 14 13 13 12 11 11 10 10 9 9 8 8 8 8 7 7 7 7 7 7 7 6 6 7 7 7 8 8 9 9 9 10 10 10 10 8 7 7 8 8 8 9
13 14 13 13 12 12 11 11 10 10 9 9 8 8 8 8 7 7 7 7 7 6 6 6 6 7 7 8 8 9 9 9 9 10 10 10 8 6 7 7 7 7 7
13 13 13 13 13 12 11 11 11 10 10 9 9 8 8 8 8 8 7 7 7 7 7 7 7 7 7 8 8 9 9 9 9 9 10 9 9 6 6 6 7 6 7
13 13 13 13 13 12 12 11 11 11 11 10 10 9 9 8 8 8 8 7 7 7 7 7 7 7 7 8 8 9 9 9 9 9 9 9 9 7 7 7 7 6 6
13 13 14 13 13 12 12 11 11 11 11 11 10 10 9 9 9 9 8 8 7 7 7 7 7 8 8 8 8 8 8 9 9 9 9 9 8 7 7 7 7 7 7
13 13 14 13 13 12 12 11 11 11 11 11 11 10 10 10 9 9 9 8 8 8 8 8 8 8 8 8 8 8 8 8 8 8 9 8 8 7 6 6 7 6 6
12 12 13 13 13 12 12 12 11 11 11 11 11 10 10 10 9 9 9 9 8 8 8 8 8 8 8 8 8 8 7 8 8 8 8 8 8 7 6 6 6 5 5
12 12 13 13 13 12 12 11 11 11 11 11 11 10 10 10 9 9 9 9 8 8 8 8 8 8 8 7 7 7 7 7 7 7 7 7 7 7 6 5 5 5 4
12 12 12 12 12 12 12 11 11 11 11 11 10 10 10 9 9 9 9 8 8 8 8 8 8 7 7 7 7 7 7 7 7 7 7 6 6 6 6 5 5 4 4
13 13 12 11 11 11 11 11 11 11 11 11 10 10 10 9 9 9 9 8 8 8 8 8 7 7 7 7 7 7 6 6 6 6 6 6 6 6 5 5 5 4 4
15 14 13 12 11 11 10 10 11 11 11 11 10 10 9 9 9 9 9 8 8 8 8 8 7 7 7 7 6 6 6 6 6 6 6 5 5 5 5 5 4 4 3
15 15 14 13 11 10 10 10 10 10 11 11 10 10 10 9 9 9 9 9 8 8 8 8 7 7 7 6 6 6 6 5 5 5 5 5 5 5 5 4 4 3 3
15 15 15 13 12 11 10 10 10 10 10 11 10 10 10 10 9 9 8 8 8 8 8 7 7 7 6 6 6 6 5 5 5 5 5 5 5 4 4 4 3 2 2
15 15 15 14 13 12 11 11 11 10 10 11 11 10 10 10 9 9 8 8 8 7 7 7 7 6 6 6 6 5 5 5 5 4 4 4 4 4 4 3 3 2 1
15 14 14 14 13 12 12 11 11 11 10 11 11 11 10 10 9 9 8 8 8 7 7 7 6 6 6 6 5 5 5 5 4 4 4 4 4 3 3 3 2 1 0
14 14 14 13 13 13 13 12 11 11 11 11 11 11 11 10 9 9 8 8 8 7 7 7 6 6 6 6 5 5 5 4 4 4 4 3 3 3 3 2 2 1 -0
15 14 13 13 13 13 12 12 12 11 11 11 11 11 11 10 9 9 9 8 8 7 7 7 6 6 6 5 5 5 4 4 4 3 3 3 3 3 2 2 1 1 -0
15 14 13 13 12 12 11 11 11 10 10 10 11 11 11 11 10 9 9 8 8 7 7 7 6 6 6 5 4 4 4 4 4 3 3 3 3 2 2 1 1 1 0
16 14 13 13 12 12 11 11 12 12 12 11 11 11 11 11 10 10 9 8 8 8 8 7 6 6 5 5 4 3 3 3 3 3 3 3 3 2 2 1 0 -0 -0
16 15 13 13 12 12 13 13 13 13 13 12 11 11 10 10 10 10 9 9 8 8 7 7 6 6 5 5 4 3 2 2 3 3 3 2 2 2 1 1 -0 -1 -1
15 15 14 13 12 12 12 11 11 10 10 10 11 11 10 10 10 10 10 9 9 8 8 7 7 6 5 5 4 3 2 2 1 1 1 1 1 1 1 0 -0 -1 -2
15 14 13 12 12 11 10 10 10 10 11 12 12 11 10 9 9 9 9 9 8 8 8 7 6 6 5 4 3 3 3 2 1 0 -1 -1 -0 -0 0 -0 -1 -1 -2
14 14 13 12 11 10 9 9 9 9 10 10 9 9 8 8 8 8 8 8 7 7 7 6 5 5 4 4 4 3 2 1 0 -0 -1 -1 -1 -1 -1 -1 -1 -2 -2
14 14 13 12 11 10 9 9 8 8 8 8 7 7 7 7 7 7 7 6 6 6 5 5 4 3 3 3 3 2 2 1 1 0 -0 -0 -1 -1 -2 -2 -2 -2 -3
Wind_Speed
11 20 20 17 15 13 12 11 11 10 11 12 12 13 14 14 15 15 16 17 17 18 18 19 19 20 21 21 21 22 22 22 21 21 22 24 26 25 26 25 24 22 25
15 22 21 19 16 14 13 12 11 11 11 11 12 12 13 13 13 14 15 15 16 16 17 17 18 19 19 20 20 20 20 20 20 20 21 21 24 25 25 25 25 22 25
19 23 22 20 18 16 14 13 12 11 11 11 11 11 12 12 13 13 13 14 14 15 15 16 16 17 18 19 19 19 19 19 19 19 20 20 20 24 24 24 24 24 24
21 23 21 21 19 17 15 14 13 12 11 11 11 11 11 11 12 12 12 12 13 13 14 14 15 16 16 17 18 18 18 18 19 18 17 19 18 22 23 23 23 23 23
20 23 23 23 20 18 17 15 14 13 12 11 11 11 10 11 11 11 11 11 11 12 12 13 13 14 15 16 17 17 17 17 17 17 17 19 18 20 22 22 22 22 23
16 23 24 24 21 20 18 16 15 14 13 12 11 11 10 10 10 10 10 10 10 10 11 11 12 13 13 14 15 16 16 16 15 15 16 18 18 20 21 21 22 22 22
14 23 25 24 22 21 19 18 16 15 14 13 12 11 10 10 9 9 8 8 8 8 9 10 10 11 12 13 14 15 15 14 15 14 16 18 18 20 20 21 21 21 22
13 21 24 24 23 22 20 19 18 16 15 14 13 12 11 10 9 8 8 7 7 7 7 8 8 9 10 11 12 13 13 13 13 12 14 16 18 19 19 20 20 21 21
16 19 23 22 23 22 21 20 19 18 16 15 13 12 11 10 9 8 7 6 5 5 5 5 6 6 7 9 10 11 11 12 12 12 12 14 16 17 18 18 19 19 20
10 13 21 22 22 21 21 21 20 19 18 16 14 13 12 10 9 8 7 6 5 4 4 3 3 3 4 6 8 8 9 10 10 10 10 12 15 16 16 17 17 18 18
12 9 16 21 22 22 21 21 21 20 19 18 16 15 13 12 11 10 8 7 5 4 3 2 0 1 1 1 4 6 6 8 7 6 6 11 14 15 15 16 16 17 17
15 14 9 15 21 23 22 21 20 19 19 18 17 16 15 14 14 11 11 9 7 6 5 4 4 4 3 1 2 3 5 6 5 5 5 9 12 13 14 15 15 16 17
15 13 13 11 18 20 17 20 19 18 19 20 21 21 18 14 12 11 12 11 10 10 10 9 9 8 3 1 2 2 2 3 3 3 5 8 11 12 14 14 15 16 16
14 16 14 12 13 17 17 17 18 17 18 19 20 24 19 14 13 14 14 16 16 15 13 11 11 9 6 5 4 3 3 3 3 4 5 9 10 12 13 14 15 15 16
16 17 15 11 11 13 14 14 16 15 17 19 20 22 21 16 13 14 14 15 16 16 15 12 11 9 9 8 7 6 5 5 6 6 6 9 11 12 13 14 14 15 16
18 17 16 15 13 14 11 10 12 15 18 19 19 21 22 20 17 14 13 14 15 15 15 14 12 8 7 7 7 7 7 8 8 7 8 9 11 13 13 14 14 15 16
15 17 17 16 13 12 11 12 14 16 18 17 19 23 24 22 20 17 13 12 15 16 15 12 11 8 6 6 6 9 9 8 8 9 10 10 10 12 14 14 14 15 16
13 16 17 17 16 15 11 13 13 16 17 17 20 23 25 25 22 18 13 12 18 17 14 9 6 5 5 5 5 6 8 8 10 12 13 12 12 12 13 14 15 16 17
15 14 16 16 16 15 12 12 13 14 15 18 20 20 23 25 24 19 14 15 18 14 12 9 6 6 6 6 6 5 5 6 9 12 12 14 14 15 14 15 17 17 18
14 14 15 15 15 13 11 9 9 10 9 16 18 19 22 24 25 21 16 16 17 9 8 8 8 7 6 5 5 5 5 5 8 9 11 13 14 15 16 16 17 17 18
13 12 14 15 15 13 12 13 13 14 11 9 13 20 23 24 25 22 14 14 14 10 11 10 8 8 7 5 3 4 6 9 9 8 11 11 12 15 16 16 17 17 17
12 12 13 14 16 15 14 12 10 9 9 9 8 15 22 23 24 24 17 10 11 10 12 13 10 8 7 8 5 3 4 5 9 11 8 7 8 13 14 16 17 18 18
9 11 11 13 14 15 13 7 7 7 7 9 11 12 14 22 24 23 21 15 12 12 14 15 13 14 11 10 8 6 5 8 3 4 8 8 8 6 9 14 16 19 20
7 8 10 10 11 12 12 11 12 12 15 14 10 9 10 18 20 24 22 20 13 12 14 15 15 12 10 9 8 8 5 5 5 3 4 7 9 9 8 11 14 17 20
3 6 7 8 9 10 12 13 13 14 12 8 8 10 12 12 16 20 21 18 14 13 14 14 14 14 13 12 8 6 7 6 5 5 5 5 5 7 8 8 12 16 19
2 2 4 6 8 9 11 12 14 15 13 11 11 11 11 10 12 15 17 15 13 13 14 14 13 15 15 14 11 9 7 6 8 8 10 8 6 6 8 7 8 12 16
Wind_Direction
138 148 152 148 143 138 131 123 114 107 100 95 90 84 81 77 74 71 67 65 63 61 59 57 56 55 54 52 50 48 47 48 48 48 44 41 44 45 43 41 40 34 35
141 149 153 150 148 144 138 130 123 117 110 104 98 91 87 83 79 75 71 68 65 62 60 59 57 56 54 52 51 49 48 49 49 49 45 33 36 42 42 40 39 36 34
142 148 155 153 152 149 144 139 133 127 121 115 108 100 95 89 85 80 76 72 69 65 62 59 57 55 53 52 50 49 49 49 50 50 42 23 22 39 40 38 36 35 33
146 150 157 156 156 154 151 147 143 137 131 125 118 110 104 97 91 85 80 77 73 69 65 61 58 55 53 50 48 47 48 50 52 51 38 24 17 34 37 36 34 33 32
149 154 158 159 159 159 157 155 150 145 140 135 128 120 112 105 98 91 84 79 75 71 66 62 58 55 52 49 46 45 46 51 53 48 40 24 12 28 34 33 31 30 29
152 152 157 162 163 163 163 160 157 153 148 143 137 131 122 114 107 99 92 85 80 73 68 63 57 54 51 47 44 42 43 52 54 47 42 23 11 24 28 28 27 26 26
155 150 160 167 168 168 168 166 164 160 156 152 147 141 134 126 119 111 103 94 86 78 70 64 57 51 48 44 41 39 39 47 54 47 45 21 14 23 24 23 21 21 20
156 151 163 171 172 172 172 172 170 167 164 160 157 152 146 139 133 127 118 107 96 87 76 67 58 48 45 41 37 35 37 43 44 38 45 20 16 19 20 19 17 15 14
160 155 162 175 176 177 177 177 175 174 171 167 165 160 156 151 147 142 136 127 115 103 90 76 63 49 42 39 35 32 35 40 46 42 36 14 13 14 14 14 12 11 10
164 163 164 175 177 179 181 181 180 179 177 174 171 168 165 162 158 157 155 149 141 131 117 95 68 50 40 39 34 30 35 36 41 46 38 10 9 7 7 7 6 5 4
176 176 170 176 178 180 181 185 183 183 182 179 176 175 172 171 171 178 171 169 170 169 163 154 143 327 288 8 35 28 35 27 35 44 40 6 2 360 359 359 358 357 357
187 184 182 181 178 179 183 181 180 182 183 177 175 179 185 196 183 178 171 181 190 197 200 206 228 243 266 341 360 18 33 19 18 18 8 353 352 351 350 350 350 349 348
189 186 188 190 179 178 178 172 180 183 180 185 181 181 194 193 173 165 168 188 200 209 216 213 228 232 234 136 308 327 24 350 342 355 339 332 337 339 340 340 341 340 340
190 192 190 187 180 178 175 174 180 181 179 188 188 181 189 183 179 185 188 188 198 204 213 211 222 208 206 217 233 273 290 287 297 306 304 312 320 325 328 330 330 331 331
194 193 192 186 183 180 176 179 183 182 178 184 187 185 185 182 185 191 200 199 199 199 198 213 223 209 205 212 220 232 247 265 272 280 286 295 303 309 313 316 319 320 321
196 192 189 191 186 182 183 183 187 185 179 184 187 191 191 188 188 195 199 199 202 204 199 206 217 208 211 211 221 234 237 246 253 260 266 274 287 295 299 303 306 309 311
195 189 188 191 187 185 187 190 192 190 185 188 189 194 197 196 193 194 198 196 201 203 203 205 217 208 217 215 219 235 237 238 249 259 263 260 262 276 285 290 295 298 302
195 187 187 190 191 190 189 193 196 196 192 194 193 195 199 201 198 195 197 197 197 199 197 195 203 192 212 212 220 228 225 225 236 250 254 252 249 253 264 279 286 289 294
196 186 184 186 189 191 188 191 199 201 201 199 199 197 199 201 201 198 198 199 196 194 192 198 197 196 205 210 215 221 221 226 234 245 243 243 242 242 246 261 274 281 287
189 184 181 183 185 186 187 191 200 210 208 204 204 202 198 201 202 201 201 199 195 191 194 197 199 198 202 201 217 229 226 226 233 236 238 241 239 238 242 245 253 265 277
178 181 179 183 186 187 193 199 203 210 211 209 207 204 200 199 201 202 205 201 199 198 199 196 190 197 203 184 194 262 257 236 232 229 227 227 229 233 236 238 242 246 256
178 183 182 185 188 193 201 203 206 206 211 214 210 210 204 201 200 205 205 203 202 201 200 199 193 191 196 185 174 189 262 267 234 227 214 216 221 226 230 238 240 240 243
186 190 195 192 193 196 196 195 202 207 212 216 215 215 209 205 204 205 208 207 206 204 208 204 197 194 200 196 185 172 192 226 250 229 217 218 217 216 224 233 238 240 242
205 194 196 197 197 194 192 201 205 212 221 222 218 216 212 211 210 209 209 210 210 210 212 209 205 202 193 198 202 208 199 170 182 247 261 229 221 223 225 235 241 239 240
202 193 195 199 203 197 198 204 213 224 231 232 221 219 217 216 216 215 212 212 214 214 214 211 209 206 206 203 195 186 211 217 194 194 239 242 234 228 228 230 237 238 239
48 162 189 207 218 209 206 209 214 225 229 231 229 227 223 221 219 218 216 215 216 217 216 214 212 211 211 211 208 196 182 185 202 203 219 224 230 234 230 230 233 235 240
Height
1562 1565 1568 1569 1571 1571 1572 1572 1573 1573 1573 1574 1573 1573 1573 1573 1573 1572 1572 1571 1570 1570 1569 1568 1567 1566 1564 1562 1561 1561 1560 1559 1559 1559 1558 1559 1560 1559 1558 1557 1557 1556 1556
1561 1563 1566 1568 1570 1571 1571 1572 1572 1573 1573 1573 1573 1573 1573 1573 1572 1572 1572 1571 1570 1570 1569 1568 1567 1566 1565 1563 1562 1561 1560 1560 1559 1559 1559 1558 1559 1559 1558 1557 1557 1556 1556
1559 1562 1565 1567 1569 1570 1571 1571 1572 1572 1572 1573 1573 1573 1573 1573 1572 1572 1572 1571 1570 1570 1569 1568 1567 1566 1565 1564 1563 1562 1561 1560 1560 1559 1559 1558 1558 1559 1558 1557 1556 1556 1555
1558 1560 1563 1565 1567 1569 1570 1570 1571 1572 1572 1572 1573 1573 1573 1572 1572 1572 1571 1571 1570 1569 1569 1568 1567 1567 1566 1565 1564 1563 1562 1561 1560 1560 1559 1558 1558 1559 1558 1557 1556 1555 1554
1556 1558 1561 1564 1566 1567 1568 1569 1570 1571 1571 1572 1572 1572 1572 1572 1572 1571 1571 1571 1570 1569 1569 1568 1567 1567 1566 1565 1564 1564 1563 1562 1561 1560 1559 1559 1558 1559 1558 1557 1556 1555 1554
1555 1556 1559 1562 1564 1565 1567 1568 1569 1570 1570 1571 1571 1571 1571 1571 1571 1571 1571 1570 1570 1569 1569 1568 1567 1567 1566 1565 1565 1564 1563 1563 1562 1561 1560 1559 1558 1558 1558 1556 1555 1554 1554
1553 1554 1556 1559 1562 1563 1565 1566 1568 1569 1569 1570 1570 1570 1570 1570 1570 1570 1570 1570 1569 1569 1568 1568 1567 1567 1566 1566 1565 1564 1564 1563 1562 1561 1560 1559 1558 1558 1557 1556 1555 1554 1553
1551 1551 1554 1557 1559 1561 1563 1564 1566 1567 1568 1569 1569 1569 1570 1570 1569 1569 1569 1569 1568 1568 1568 1567 1567 1566 1566 1566 1565 1565 1564 1563 1562 1561 1560 1559 1558 1557 1556 1555 1554 1553 1552
1549 1549 1550 1554 1556 1558 1560 1562 1563 1564 1566 1567 1567 1568 1568 1568 1568 1568 1568 1568 1567 1567 1567 1566 1566 1566 1565 1565 1565 1564 1563 1562 1561 1560 1559 1558 1557 1556 1555 1553 1552 1551 1550
1546 1547 1547 1550 1552 1555 1557 1559 1560 1562 1563 1564 1565 1566 1567 1567 1567 1567 1567 1567 1566 1566 1566 1566 1565 1565 1565 1564 1564 1563 1562 1562 1560 1559 1558 1557 1556 1555 1553 1552 1551 1550 1549
1542 1543 1544 1546 1548 1551 1553 1555 1557 1558 1560 1561 1563 1564 1564 1565 1565 1565 1565 1565 1565 1565 1565 1564 1564 1564 1563 1563 1563 1562 1561 1560 1559 1558 1557 1556 1554 1553 1552 1551 1549 1548 1547
1536 1538 1541 1543 1544 1546 1549 1550 1552 1554 1556 1558 1559 1561 1562 1562 1562 1562 1563 1563 1563 1563 1563 1562 1562 1562 1561 1561 1561 1560 1560 1558 1557 1556 1555 1554 1553 1551 1550 1549 1548 1546 1545
1532 1534 1536 1539 1541 1542 1544 1545 1548 1550 1552 1554 1555 1558 1559 1559 1560 1560 1560 1560 1560 1560 1560 1560 1560 1560 1559 1559 1558 1558 1557 1556 1555 1554 1553 1552 1551 1549 1548 1547 1545 1544 1543
1528 1529 1531 1534 1537 1538 1540 1541 1543 1545 1547 1549 1551 1553 1555 1555 1556 1557 1557 1557 1557 1558 1557 1557 1557 1557 1557 1556 1556 1555 1554 1554 1553 1552 1551 1550 1548 1547 1546 1544 1543 1542 1540
1522 1524 1526 1529 1532 1534 1535 1537 1539 1540 1542 1545 1547 1549 1550 1551 1552 1553 1553 1553 1553 1553 1554 1554 1554 1553 1553 1553 1552 1552 1551 1550 1549 1548 1547 1547 1545 1544 1543 1541 1540 1539 1537
1516 1519 1521 1524 1526 1528 1530 1532 1534 1536 1537 1540 1542 1544 1545 1546 1548 1548 1548 1549 1549 1549 1549 1550 1550 1549 1549 1549 1548 1548 1547 1547 1546 1545 1544 1543 1542 1540 1539 1538 1536 1535 1534
1512 1514 1516 1518 1521 1523 1525 1527 1529 1531 1532 1534 1536 1539 1540 1541 1542 1543 1543 1543 1544 1545 1545 1545 1545 1545 1545 1544 1544 1543 1543 1542 1542 1541 1539 1538 1538 1537 1535 1534 1532 1531 1530
1508 1509 1510 1513 1515 1517 1519 1521 1523 1525 1527 1528 1530 1532 1534 1535 1536 1536 1537 1538 1539 1539 1539 1540 1540 1540 1540 1539 1539 1538 1538 1537 1537 1536 1535 1534 1533 1532 1531 1529 1528 1526 1525
1503 1505 1506 1507 1509 1511 1513 1516 1518 1520 1521 1522 1523 1524 1526 1528 1529 1530 1531 1532 1533 1533 1533 1534 1534 1534 1534 1534 1533 1533 1532 1532 1531 1531 1530 1529 1527 1526 1525 1524 1523 1521 1520
1497 1500 1501 1502 1504 1506 1508 1510 1512 1513 1514 1515 1515 1516 1517 1519 1522 1523 1524 1525 1526 1526 1526 1527 1527 1528 1528 1528 1527 1526 1526 1525 1525 1524 1524 1523 1522 1521 1520 1518 1517 1516 1514
1492 1495 1496 1497 1498 1500 1501 1501 1502 1503 1505 1507 1508 1509 1510 1511 1513 1515 1516 1517 1518 1518 1518 1520 1521 1521 1521 1522 1521 1519 1518 1518 1517 1517 1517 1516 1515 1515 1513 1512 1510 1509 1508
1488 1490 1491 1491 1492 1492 1494 1495 1496 1498 1499 1500 1501 1502 1502 1503 1504 1506 1507 1508 1510 1510 1511 1511 1512 1512 1513 1514 1514 1513 1511 1509 1507 1508 1509 1509 1509 1508 1507 1506 1504 1502 1501
1486 1486 1487 1487 1487 1487 1489 1491 1492 1492 1492 1492 1491 1492 1494 1495 1495 1496 1498 1499 1500 1501 1501 1501 1502 1503 1503 1504 1504 1506 1504 1500 1500 1499 1499 1500 1501 1501 1500 1499 1497 1496 1494
1484 1484 1484 1484 1484 1484 1485 1486 1485 1484 1482 1482 1485 1486 1487 1488 1488 1488 1488 1489 1490 1491 1491 1492 1493 1493 1494 1493 1493 1493 1495 1495 1495 1492 1491 1491 1492 1492 1492 1492 1490 1489 1487
1482 1481 1481 1481 1481 1482 1481 1481 1481 1479 1478 1480 1481 1480 1480 1479 1479 1479 1479 1480 1480 1480 1480 1482 1482 1483 1483 1483 1483 1482 1484 1485 1484 1484 1482 1482 1483 1483 1484 1484 1483 1482 1480
1480 1479 1478 1477 1477 1477 1477 1476 1475 1474 1474 1474 1474 1473 1473 1472 1471 1470 1471 1470 1470 1470 1470 1471 1472 1472 1472 1472 1473 1472 1471 1472 1471 1472 1472 1472 1473 1474 1475 1475 1474 1473 1473